GW3840 Weather Reports


time (UTC)temp
F
wind
direction
speed
knots
gust
knots
rain 1hr
in
rain 24hr
in
rain mn
in
humidity
%
barometer
mb
20260906083701 69 30 1.7 2.6 0.00 0.00 0.00 99 1018.2
20260906083156 70 84 1.7 3.5 0.00 0.00 0.00 98 1018.0
20260906082652 70 101 3.5 5.2 0.00 0.00 0.00 98 1018.2
20260906082148 70 62 2.6 7.8 0.00 0.00 0.00 98 1018.1
20260906081643 70 94 2.6 5.2 0.00 0.00 0.00 98 1017.9
20260906081138 69 104 4.3 6.1 0.00 0.00 0.00 99 1017.9
20260906080635 70 71 1.7 3.5 0.00 0.00 0.00 98 1017.9
20260906080130 69 84 1.7 3.5 0.00 0.00 0.00 98 1018.1
20260906075624 69 96 2.6 7.0 0.00 0.00 0.00 98 1018.1
20260906075119 69 92 2.6 3.5 0.00 0.00 0.00 98 1018.2
20260906074614 69 119 1.7 5.2 0.00 0.00 0.00 98 1018.2
20260906074113 69 79 2.6 5.2 0.00 0.00 0.00 98 1018.3
20260906073608 70 103 2.6 3.5 0.00 0.00 0.00 97 1018.2
20260906073104 70 132 3.5 6.1 0.00 0.00 0.00 97 1018.2
20260906072604 70 157 2.6 3.5 0.00 0.00 0.00 97 1018.3
20260906072100 70 71 1.7 5.2 0.00 0.00 0.00 97 1018.4
20260906071556 70 98 3.5 3.5 0.00 0.00 0.00 97 1018.5
20260906071051 70 113 1.7 5.2 0.00 0.00 0.00 96 1018.7
20260906070548 70 86 1.7 5.2 0.00 0.00 0.00 96 1018.5
20260906070043 70 109 1.7 3.5 0.00 0.00 0.00 96 1018.7
20260906065543 70 91 1.7 5.2 0.00 0.00 0.00 96 1018.4
20260906065039 70 58 0.9 3.5 0.00 0.00 0.00 96 1018.6
20260906064534 70 121 2.6 3.5 0.00 0.00 0.00 96 1018.8
20260906064028 70 111 1.7 3.5 0.00 0.00 0.00 95 1018.7
20260906063524 70 108 1.7 5.2 0.00 0.00 0.00 95 1019.0
20260906063020 70 110 1.7 2.6 0.00 0.00 0.00 95 1018.9
20260906062515 70 82 1.7 3.5 0.00 0.00 0.00 95 1019.0
20260906062010 70 117 1.7 3.5 0.00 0.00 0.00 94 1018.9
20260906061505 70 93 1.7 2.6 0.00 0.00 0.00 94 1019.0
20260906060959 70 108 1.7 2.6 0.00 0.00 0.00 94 1019.2
20260906060456 70 112 1.7 2.6 0.00 0.00 0.00 94 1019.1
20260906055953 70 84 1.7 2.6 0.00 0.00 0.00 94 1019.0
20260906055449 70 149 2.6 5.2 0.00 0.00 0.00 94 1019.1
20260906054944 70 75 2.6 2.6 0.00 0.00 0.00 94 1018.9
20260906054443 70 60 2.6 5.2 0.00 0.00 0.00 94 1019.0
20260906053939 70 125 0.9 3.5 0.00 0.00 0.00 93 1019.0
20260906053436 70 149 3.5 7.0 0.00 0.00 0.00 93 1018.9
20260906052931 70 99 5.2 7.0 0.00 0.00 0.00 94 1019.0
20260906052427 70 117 1.7 2.6 0.00 0.00 0.00 93 1019.1
20260906051923 70 109 1.7 3.5 0.00 0.00 0.00 93 1019.3
20260906051418 70 90 0.9 3.5 0.00 0.00 0.00 93 1019.3
20260906050914 70 129 0.9 2.6 0.00 0.00 0.00 93 1019.2
20260906050408 70 107 2.6 3.5 0.00 0.00 0.00 93 1019.2
20260906045908 71 112 1.7 6.1 0.00 0.00 0.00 93 1019.3
20260906045406 71 102 2.6 3.5 0.00 0.00 0.00 93 1019.2
20260906044903 71 165 0.9 3.5 0.00 0.00 0.00 92 1019.1
20260906044402 71 103 1.7 3.5 0.00 0.00 0.00 92 1019.1
20260906043858 71 95 0.9 2.6 0.00 0.00 0.00 92 1019.3
20260906043354 71 88 1.7 2.6 0.00 0.00 0.00 92 1019.3
20260906042849 71 100 3.5 7.0 0.00 0.00 0.00 91 1019.1
20260906042348 71 72 2.6 3.5 0.00 0.00 0.00 91 1019.0
20260906041843 71 55 3.5 5.2 0.00 0.00 0.00 91 1019.1
20260906041339 71 190 0.9 3.5 0.00 0.00 0.00 91 1019.1
20260906040834 71 160 0.9 3.5 0.00 0.00 0.00 91 1019.1
20260906040329 71 154 0.9 3.5 0.00 0.00 0.00 91 1019.0
20260906035824 71 80 3.5 5.2 0.00 0.00 0.00 90 1019.0
20260906035325 72 144 0.9 2.6 0.00 0.00 0.00 89 1018.9
20260906034820 72 97 3.5 6.1 0.00 0.00 0.00 89 1018.9
20260906034315 72 97 3.5 7.8 0.00 0.00 0.00 88 1018.9
20260906033811 72 95 4.3 7.0 0.00 0.00 0.00 88 1018.8
20260906033310 72 163 0.0 2.6 0.00 0.00 0.00 88 1018.8
20260906032807 73 109 5.2 7.0 0.00 0.00 0.00 88 1019.0
20260906032305 73 96 1.7 5.2 0.00 0.00 0.00 87 1019.0
20260906031757 73 90 1.7 3.5 0.00 0.00 0.00 87 1019.1
20260906031253 73 123 1.7 3.5 0.00 0.00 0.00 87 1018.9
20260906030752 73 108 2.6 6.1 0.00 0.00 0.00 87 1018.8
20260906030248 74 155 1.7 5.2 0.00 0.00 0.00 86 1018.8
20260906025747 73 97 4.3 6.1 0.00 0.00 0.00 86 1018.8
20260906025241 74 81 2.6 3.5 0.00 0.00 0.00 86 1018.7
20260906024741 74 63 2.6 3.5 0.00 0.00 0.00 86 1018.6
20260906024239 74 124 0.9 5.2 0.00 0.00 0.00 85 1018.9
20260906023735 75 69 2.6 3.5 0.00 0.00 0.00 85 1018.8
20260906023230 75 87 3.5 7.0 0.00 0.00 0.00 84 1018.7
20260906022726 75 81 2.6 6.1 0.00 0.00 0.00 84 1018.5
20260906022221 75 84 1.7 7.8 0.00 0.00 0.00 84 1018.8
20260906021718 75 131 4.3 5.2 0.00 0.00 0.00 84 1018.7
20260906021216 75 88 1.7 1.7 0.00 0.00 0.00 84 1018.7
20260906020711 75 147 2.6 3.5 0.00 0.00 0.00 84 1018.9
20260906020206 75 77 0.9 2.6 0.00 0.00 0.00 83 1018.7
20260906015705 75 147 0.9 2.6 0.00 0.00 0.00 84 1018.5
20260906015158 75 76 1.7 1.7 0.00 0.00 0.00 84 1018.4
20260906014653 75 128 0.0 1.7 0.00 0.00 0.00 83 1018.4
20260906014149 74 98 1.7 2.6 0.00 0.00 0.00 84 1018.4
20260906013645 75 162 0.0 0.0 0.00 0.00 0.00 84 1018.6
20260906013140 75 159 0.0 0.9 0.00 0.00 0.00 83 1018.6
20260906012639 75 144 0.0 0.9 0.00 0.00 0.00 82 1018.5
20260906012134 76 176 0.0 0.9 0.00 0.00 0.00 81 1018.5
20260906011630 76 107 0.0 1.7 0.00 0.00 0.00 81 1018.1
20260906011125 77 137 0.9 1.7 0.00 0.00 0.00 80 1018.2
20260906010620 77 104 0.9 0.9 0.00 0.00 0.00 80 1018.2
20260906010116 77 139 0.9 1.7 0.00 0.00 0.00 79 1018.4
20260906005615 77 83 0.9 1.7 0.00 0.00 0.00 79 1018.2
20260906005114 78 98 1.7 2.6 0.00 0.00 0.00 78 1018.1
20260906004608 78 133 1.7 1.7 0.00 0.00 0.00 78 1017.8
20260906004103 78 135 0.0 0.9 0.00 0.00 0.00 77 1017.7
20260906003559 79 90 0.9 1.7 0.00 0.00 0.00 77 1017.7
20260906003055 79 70 1.7 2.6 0.00 0.00 0.00 77 1017.4
20260906002554 79 94 0.9 8.7 0.00 0.00 0.00 76 1017.4
20260906002049 79 147 0.9 1.7 0.00 0.00 0.00 76 1017.0
20260906001544 80 183 1.7 3.5 0.00 0.00 0.00 75 1016.9
20260906001039 81 169 0.9 7.8 0.00 0.00 0.00 74 1016.9
20260906000535 81 74 0.9 3.5 0.00 0.00 0.00 74 1016.7
20260906000030 81 126 0.9 6.1 0.00 0.00 0.00 73 1016.5
20260905235524 81 100 1.7 3.5 0.00 0.00 0.00 73 1016.6
20260905235019 82 235 2.6 5.2 0.00 0.00 0.00 72 1016.4
20260905234515 82 214 1.7 7.0 0.00 0.00 0.00 73 1016.5
20260905234014 82 82 4.3 7.0 0.00 0.00 0.00 72 1016.6
20260905233509 82 135 5.2 7.8 0.00 0.00 0.00 72 1016.4
20260905233009 82 97 1.7 2.6 0.00 0.00 0.00 71 1016.3
20260905232505 82 88 2.6 9.6 0.00 0.00 0.00 71 1016.5
20260905232000 82 122 3.5 7.8 0.00 0.00 0.00 71 1016.4
20260905231455 83 180 3.5 5.2 0.00 0.00 0.00 71 1016.1
20260905230952 83 107 5.2 7.0 0.00 0.00 0.00 71 1016.2
20260905230450 83 92 1.7 7.0 0.00 0.00 0.00 70 1016.2
20260905225948 83 89 2.6 8.7 0.00 0.00 0.00 70 1016.2
20260905225444 83 93 5.2 7.8 0.00 0.00 0.00 70 1016.3
20260905224939 83 83 4.3 13.0 0.00 0.00 0.00 70 1016.2
20260905224434 84 75 1.7 5.2 0.00 0.00 0.00 71 1016.2
20260905223928 83 122 3.5 7.8 0.00 0.00 0.00 71 1016.1
20260905223426 84 150 2.6 11.3 0.00 0.00 0.00 72 1016.1
20260905222921 84 65 2.6 5.2 0.00 0.00 0.00 71 1016.2
20260905222420 84 43 3.5 7.8 0.00 0.00 0.00 71 1015.9
20260905221916 84 68 1.7 7.0 0.00 0.00 0.00 72 1016.1
20260905221413 84 105 3.5 7.0 0.00 0.00 0.00 72 1016.1
20260905220909 84 58 3.5 7.8 0.00 0.00 0.00 72 1016.1
20260905220404 83 63 5.2 13.0 0.00 0.00 0.00 72 1016.1
20260905215903 84 100 4.3 8.7 0.00 0.00 0.00 72 1016.1
20260905215359 84 95 2.6 9.6 0.00 0.00 0.00 73 1016.4
20260905214855 83 81 3.5 8.7 0.00 0.00 0.00 74 1016.3
20260905214351 84 159 3.5 6.1 0.00 0.00 0.00 72 1016.5
20260905213845 83 104 1.7 8.7 0.00 0.00 0.00 73 1016.5
20260905213341 84 123 4.3 7.8 0.00 0.00 0.00 73 1016.5
20260905212836 83 71 6.1 11.3 0.00 0.00 0.00 74 1016.6
20260905212336 84 94 3.5 7.0 0.00 0.00 0.00 73 1016.8
20260905211830 83 79 3.5 7.8 0.00 0.00 0.00 73 1017.2
20260905211326 83 84 2.6 8.7 0.00 0.00 0.00 75 1017.4
20260905210822 83 73 3.5 7.8 0.00 0.00 0.00 74 1017.5
20260905210321 83 61 4.3 7.0 0.00 0.00 0.00 74 1017.7
20260905205815 83 59 5.2 8.7 0.00 0.00 0.00 73 1017.6
20260905205310 83 114 3.5 6.1 0.00 0.00 0.00 74 1017.8
20260905204809 83 103 5.2 7.8 0.00 0.00 0.00 74 1017.8
20260905204305 83 284 4.3 7.0 0.00 0.00 0.00 76 1017.7
20260905203804 83 84 5.2 8.7 0.00 0.00 0.00 75 1017.7
20260905203259 82 71 6.1 8.7 0.00 0.00 0.00 76 1017.7
20260905202750 83 356 2.6 3.5 0.00 0.00 0.00 76 1017.8
20260905202244 82 103 5.2 7.0 0.00 0.00 0.00 76 1017.9
20260905201740 81 104 1.7 7.0 0.00 0.00 0.00 78 1018.0
20260905201235 82 47 3.5 7.0 0.00 0.00 0.00 77 1018.0
20260905200730 81 92 5.2 7.0 0.00 0.00 0.00 78 1017.9
20260905200226 81 99 4.3 7.0 0.00 0.00 0.00 78 1017.9
20260905195723 80 100 5.2 8.7 0.00 0.00 0.00 79 1018.1
20260905195218 81 93 3.5 6.1 0.00 0.00 0.00 79 1018.2
20260905194714 80 101 3.5 7.8 0.00 0.00 0.00 78 1018.2
20260905194214 80 73 4.3 7.0 0.00 0.00 0.00 77 1018.4
20260905193708 80 111 1.7 6.1 0.00 0.00 0.00 78 1018.3
20260905193203 80 83 2.6 7.0 0.00 0.00 0.00 78 1018.2
20260905192659 80 50 3.5 8.7 0.00 0.00 0.00 79 1018.3
20260905192155 79 85 3.5 7.8 0.00 0.00 0.00 81 1018.4
20260905191654 80 124 4.3 7.0 0.00 0.00 0.00 78 1018.2
20260905191152 80 73 3.5 5.2 0.00 0.00 0.00 78 1018.2
20260905190651 80 62 4.3 7.0 0.00 0.00 0.00 79 1018.4
20260905190150 80 71 6.1 7.8 0.00 0.00 0.00 78 1018.4
20260905185649 79 71 3.5 7.0 0.00 0.00 0.00 81 1018.1
20260905185144 79 72 6.1 7.0 0.00 0.00 0.00 79 1018.1
20260905184643 78 151 5.2 7.8 0.00 0.00 0.00 80 1018.3
20260905184142 78 88 2.6 7.8 0.00 0.00 0.00 80 1018.2
20260905183641 78 88 3.5 9.6 0.00 0.00 0.00 80 1018.3
20260905183137 77 105 4.3 8.7 0.00 0.00 0.00 81 1018.2
20260905182636 77 102 5.2 9.6 0.00 0.00 0.00 82 1018.0
20260905182131 77 151 3.5 6.1 0.00 0.00 0.00 81 1018.1
20260905181626 76 99 6.1 7.8 0.00 0.00 0.00 82 1018.0
20260905181125 76 93 6.1 7.0 0.00 0.00 0.00 82 1018.2
20260905180620 75 97 2.6 7.0 0.00 0.00 0.00 82 1018.4
20260905180116 75 94 2.6 7.0 0.00 0.00 0.00 84 1018.5
20260905175615 77 89 5.2 9.6 0.00 0.00 0.00 81 1018.9
20260905175110 75 127 5.2 6.1 0.00 0.00 0.00 81 1019.0
20260905174605 75 70 5.2 7.0 0.00 0.00 0.00 83 1018.8
20260905174101 75 114 3.5 6.1 0.00 0.00 0.00 82 1019.3
20260905173557 74 84 6.1 7.0 0.00 0.00 0.00 83 1019.3
20260905173052 74 88 5.2 8.7 0.00 0.00 0.00 85 1019.3
20260905172551 74 106 4.3 7.0 0.00 0.00 0.00 83 1019.4
20260905172047 73 85 3.5 7.0 0.00 0.00 0.00 85 1019.3
20260905171543 72 164 1.7 7.0 0.00 0.00 0.00 86 1019.3
20260905171038 73 98 1.7 3.5 0.00 0.00 0.00 85 1019.5
20260905170535 72 202 0.9 6.1 0.00 0.00 0.00 87 1019.6
20260905170030 71 218 0.9 3.5 0.00 0.00 0.00 88 1019.3
20260905165525 71 55 2.6 5.2 0.00 0.00 0.00 87 1019.3
20260905165020 71 215 1.7 3.5 0.00 0.00 0.00 88 1019.3
20260905164519 70 112 1.7 3.5 0.00 0.00 0.00 88 1019.2
20260905164014 70 105 4.3 6.1 0.00 0.00 0.00 89 1019.3
20260905163510 70 67 3.5 7.8 0.00 0.00 0.00 90 1019.1
20260905163006 70 94 3.5 7.0 0.00 0.00 0.00 90 1019.4
20260905162501 70 79 3.5 6.1 0.00 0.00 0.00 89 1019.2
20260905161956 70 94 3.5 7.0 0.00 0.00 0.00 88 1019.1
20260905161456 69 95 1.7 5.2 0.00 0.00 0.00 89 1019.2
20260905160954 69 116 3.5 7.0 0.00 0.00 0.00 91 1019.1
20260905160448 69 89 1.7 7.0 0.00 0.00 0.00 91 1019.2
20260905155947 69 81 1.7 2.6 0.00 0.00 0.00 90 1019.3
20260905155442 69 118 3.5 3.5 0.00 0.00 0.00 90 1019.2
20260905154941 68 77 1.7 2.6 0.00 0.00 0.00 91 1019.2
20260905154436 68 53 3.5 6.1 0.00 0.00 0.00 92 1019.2
20260905153932 67 96 3.5 6.1 0.00 0.00 0.00 92 1019.1
20260905153428 67 116 1.7 7.8 0.00 0.00 0.00 93 1019.2
20260905152927 67 106 2.6 3.5 0.00 0.00 0.00 93 1019.2
20260905152427 67 69 3.5 3.5 0.00 0.00 0.00 93 1019.2
20260905151922 67 65 2.6 6.1 0.00 0.00 0.00 93 1019.3
20260905151413 68 227 0.9 7.0 0.00 0.00 0.00 92 1019.2
20260905150912 68 232 1.7 3.5 0.00 0.00 0.00 91 1019.2
20260905150407 67 103 3.5 6.1 0.00 0.00 0.00 92 1019.2
20260905145903 67 94 4.3 9.6 0.00 0.00 0.00 93 1019.3
20260905145358 66 85 1.7 3.5 0.00 0.00 0.00 94 1019.0
20260905144857 66 59 3.5 8.7 0.00 0.00 0.00 95 1018.9
20260905144353 66 44 2.6 5.2 0.00 0.00 0.00 95 1018.9
20260905143852 66 61 1.7 2.6 0.00 0.00 0.00 96 1019.5
20260905143346 65 169 1.7 5.2 0.00 0.00 0.00 96 1019.4
20260905142845 65 104 1.7 2.6 0.00 0.00 0.00 98 1019.6
20260905142343 64 63 3.5 6.1 0.00 0.00 0.00 98 1019.6
20260905141840 64 141 1.7 3.5 0.00 0.00 0.00 99 1019.6
20260905141335 64 122 1.7 3.5 0.00 0.00 0.00 99 1019.6
20260905140831 64 179 0.9 3.5 0.00 0.00 0.00 99 1019.5
20260905140325 64 107 1.7 8.7 0.00 0.00 0.00 99 1019.6
20260905135824 64 62 4.3 5.2 0.00 0.00 0.00 99 1019.6
20260905135320 64 70 1.7 5.2 0.00 0.00 0.00 99 1019.6
20260905134816 63 108 3.5 3.5 0.00 0.00 0.00 99 1019.4
20260905134314 63 98 3.5 5.2 0.00 0.00 0.00 99 1019.2
20260905133808 63 95 2.6 5.2 0.00 0.00 0.00 99 1019.4
20260905133304 63 87 1.7 2.6 0.00 0.00 0.00 99 1019.6
20260905132803 63 109 2.6 3.5 0.00 0.00 0.00 99 1019.5
20260905132258 63 80 1.7 1.7 0.00 0.00 0.00 99 1019.6
20260905131753 63 231 0.0 1.7 0.00 0.00 0.00 99 1019.6
20260905131248 63 92 3.5 6.1 0.00 0.00 0.00 99 1019.3
20260905130743 63 169 0.9 2.6 0.00 0.00 0.00 99 1019.1
20260905130242 63 122 3.5 6.1 0.00 0.00 0.00 99 1019.0
20260905125738 63 69 1.7 3.5 0.00 0.00 0.00 99 1018.8
20260905125233 63 145 2.6 3.5 0.00 0.00 0.00 99 1018.6
20260905124729 63 181 0.0 2.6 0.00 0.00 0.00 99 1018.7
20260905124225 62 158 1.7 5.2 0.00 0.00 0.00 99 1018.6
20260905123720 62 111 0.9 5.2 0.00 0.00 0.00 99 1018.4
20260905123217 62 222 0.9 3.5 0.00 0.00 0.00 99 1018.4
20260905122716 62 83 2.6 2.6 0.00 0.00 0.00 99 1018.4
20260905122211 62 119 0.9 3.5 0.00 0.00 0.00 99 1018.2
20260905121706 62 140 0.9 1.7 0.00 0.00 0.00 99 1018.1
20260905121203 62 90 1.7 3.5 0.00 0.00 0.00 99 1018.0
20260905120701 62 113 1.7 3.5 0.00 0.00 0.00 99 1018.1
20260905120155 62 125 1.7 5.2 0.00 0.00 0.00 99 1017.9
20260905115650 62 110 2.6 5.2 0.00 0.00 0.00 99 1018.1
20260905115145 62 128 0.0 1.7 0.00 0.00 0.00 99 1018.0
20260905114644 62 74 3.5 3.5 0.00 0.00 0.00 99 1017.9
20260905114143 62 46 1.7 2.6 0.00 0.00 0.00 99 1017.9
20260905113637 62 123 1.7 3.5 0.00 0.00 0.00 99 1018.2
20260905113133 62 161 0.9 3.5 0.00 0.00 0.00 99 1018.1
20260905112627 62 84 2.6 2.6 0.00 0.00 0.00 99 1018.0
20260905112123 62 127 0.0 0.9 0.00 0.00 0.00 99 1018.0
20260905111618 62 218 0.0 1.7 0.00 0.00 0.00 99 1017.9
20260905111117 62 183 0.0 2.6 0.00 0.00 0.00 99 1018.0
20260905110616 62 102 1.7 3.5 0.00 0.00 0.00 99 1018.1
20260905110111 62 155 0.0 5.2 0.00 0.00 0.00 99 1018.0
20260905105606 62 94 2.6 5.2 0.00 0.00 0.00 99 1018.1
20260905105105 63 100 3.5 7.0 0.00 0.00 0.00 99 1017.9
20260905104601 63 139 0.9 5.2 0.00 0.00 0.00 99 1018.1
20260905104101 63 159 0.9 5.2 0.00 0.00 0.00 99 1018.0
20260905103550 63 103 0.9 2.6 0.00 0.00 0.00 99 1017.8
20260905103047 63 71 0.9 6.1 0.00 0.00 0.00 99 1017.7
20260905102542 63 100 0.9 2.6 0.00 0.00 0.00 99 1017.9
20260905102039 63 119 0.9 1.7 0.00 0.00 0.00 99 1017.8
20260905101537 63 162 0.0 0.9 0.00 0.00 0.00 99 1017.7
20260905101035 63 187 0.0 1.7 0.00 0.00 0.00 99 1017.8
20260905100532 63 98 1.7 7.0 0.00 0.00 0.00 99 1017.7
20260905100031 63 125 1.7 2.6 0.00 0.00 0.00 99 1017.5
20260905095526 63 81 2.6 3.5 0.00 0.00 0.00 99 1017.4
20260905095021 63 102 1.7 5.2 0.00 0.00 0.00 99 1017.6
20260905094516 63 90 0.9 1.7 0.00 0.00 0.00 99 1017.6
20260905094015 63 329 0.0 3.5 0.00 0.00 0.00 99 1017.1
20260905093509 63 71 1.7 3.5 0.00 0.00 0.00 99 1016.6
20260905093007 63 83 3.5 5.2 0.00 0.00 0.00 99 1016.8
20260905092501 63 137 1.7 5.2 0.00 0.00 0.00 99 1016.6
20260905091956 63 18 1.7 2.6 0.00 0.00 0.00 99 1016.5
20260905091450 63 87 2.6 3.5 0.00 0.00 0.00 99 1016.6
20260905090950 63 60 2.6 3.5 0.00 0.00 0.00 99 1016.7
20260905090445 63 44 2.6 2.6 0.00 0.00 0.00 99 1016.5
20260905085944 63 86 4.3 7.0 0.00 0.00 0.00 99 1016.5
20260905085444 63 73 1.7 3.5 0.00 0.00 0.00 99 1016.6
20260905084939 64 90 3.5 7.0 0.00 0.00 0.00 99 1016.7
20260905084439 64 346 0.9 3.5 0.00 0.00 0.00 99 1016.8
20260905083933 64 66 5.2 7.0 0.00 0.00 0.00 99 1016.7